Weather History for 03772 - August, 2014

Change the Weather History Date:

Monday, August 11, 2014

  Actual Average Record
Temperature  
Mean Temperature 63 °F -  
Max Temperature 71 °F 70 °F - ()
Min Temperature 55 °F 55 °F - ()
Degree Days  
Heating Degree Days 2    
Growing Degree Days 13 (Base 50)    
Moisture  
Dew Point 51 °F    
Average Humidity 69    
Maximum Humidity 88    
Minimum Humidity 36    
Precipitation  
Precipitation 0.75 in - - ()
Sea Level Pressure  
Sea Level Pressure 29.75 in    
Wind  
Wind Speed 14 mph ()    
Max Wind Speed 22 mph    
Max Gust Speed 44 mph    
Visibility 7.4 miles    
Events Rain , Thunderstorm    
T = Trace of Precipitation, MM = Missing Value Source: Averaged Metar Reports

Daily Weather History Graph

Daily Weather History Graph

Search for Another Location

Airport or City:

Trip Planner

Search our weather history database for the weather conditions in past years. The results will help you decide how hot, cold, wet, or windy it might be!

Date:

Astronomy

Aug. 11, 2014 Rise Set
Actual Time 5:40 AM BST 8:32 PM BST
Civil Twilight 5:02 AM BST 9:10 PM BST
Nautical Twilight 4:12 AM BST 9:59 PM BST
Astronomical Twilight 3:10 AM BST 11:00 PM BST
Moon 8:34 PM BST (8/11) 6:39 AM BST (8/11)
Length of Visible Light 16h 08m
Length of Day
14h 51m
Full, 99% of the Moon is Illuminated
Aug 11
Full
Aug 17
Last Quarter
Aug 25
New
Sep 2
First Quarter
Sep 9
Full

Hourly Weather History & Observations

Time (BST) Temp. Dew Point Humidity Pressure Visibility Wind Dir Wind Speed Gust Speed Precip Events Conditions
12:20 AM 59.0 °F 48.2 °F 67% 29.65 in - WSW 19.6 mph - N/A   Clear
12:50 AM 57.2 °F 50.0 °F 77% 29.68 in 6.2 mi WSW 16.1 mph - N/A   Partly Cloudy
1:00 AM 58 °F 48 °F 60% 29.69 in 25 mi WSW 17.3 mph - -  
1:20 AM 57.2 °F 50.0 °F 77% 29.68 in 6.2 mi West 19.6 mph - N/A   Unknown
1:50 AM 57.2 °F 50.0 °F 77% 29.68 in 6.2 mi WSW 15.0 mph - N/A   Unknown
2:00 AM 57 °F 48 °F 64% 29.70 in 22 mi WSW 17.3 mph - -  
2:20 AM 55.4 °F 50.0 °F 82% 29.71 in 6.2 mi WSW 15.0 mph - N/A   Unknown
2:50 AM 55.4 °F 50.0 °F 82% 29.71 in - WSW 12.7 mph - N/A   Clear
3:00 AM 56 °F 48 °F 67% 29.72 in 28 mi SW 12.7 mph - -  
3:20 AM 57.2 °F 50.0 °F 77% 29.71 in - WSW 10.4 mph - N/A   Clear
3:50 AM 55.4 °F 50.0 °F 82% 29.71 in - SW 9.2 mph - N/A   Clear
4:00 AM 56 °F 48 °F 67% 29.73 in 22 mi SW 12.7 mph - -  
4:20 AM 55.4 °F 50.0 °F 82% 29.74 in - SW 12.7 mph - N/A   Clear
4:50 AM 55.4 °F 50.0 °F 82% 29.74 in - SW 12.7 mph - N/A   Clear
5:00 AM 55 °F 49 °F 72% 29.75 in 17 mi SW 13.8 mph - -  
5:20 AM 55.4 °F 50.0 °F 82% 29.74 in - SW 10.4 mph - N/A   Clear
5:50 AM 55.4 °F 50.0 °F 82% 29.74 in - SW 12.7 mph - N/A   Clear
6:00 AM 56 °F 49 °F 71% 29.76 in 22 mi SW 12.7 mph - -   Partly Cloudy
6:20 AM 55.4 °F 50.0 °F 82% 29.74 in - SW 11.5 mph - N/A   Clear
6:50 AM 57.2 °F 51.8 °F 82% 29.74 in - SW 11.5 mph - N/A   Clear
7:00 AM 57 °F 50 °F 72% 29.75 in 17 mi SW 11.5 mph - -  
7:20 AM 59.0 °F 51.8 °F 77% 29.74 in - SW 13.8 mph - N/A   Clear
7:50 AM 60.8 °F 51.8 °F 72% 29.74 in - WSW 16.1 mph - N/A   Clear
8:00 AM 60 °F 50 °F 61% 29.76 in 19 mi SW 17.3 mph - -  
8:20 AM 62.6 °F 51.8 °F 68% 29.77 in 6.2 mi WSW 15.0 mph - N/A   Partly Cloudy
8:50 AM 62.6 °F 51.8 °F 68% 29.77 in 6.2 mi WSW 16.1 mph - N/A   Partly Cloudy
9:00 AM 63 °F 51 °F 55% 29.76 in 22 mi SW 17.3 mph - -  
9:20 AM 64.4 °F 51.8 °F 64% 29.77 in 6.2 mi WSW 18.4 mph - N/A   Partly Cloudy
9:50 AM 66.2 °F 51.8 °F 60% 29.77 in 6.2 mi WSW 18.4 mph - N/A   Partly Cloudy
10:00 AM 65 °F 48 °F 44% 29.77 in 22 mi WSW 18.4 mph - -  
10:20 AM 66.2 °F 50.0 °F 56% 29.77 in 6.2 mi WSW 19.6 mph - N/A   Partly Cloudy
10:50 AM 64.4 °F 51.8 °F 64% 29.77 in 6.2 mi WSW 15.0 mph - N/A   Scattered Clouds
11:00 AM 64 °F 51 °F 53% 29.77 in 22 mi WSW 16.1 mph - - Rain Rain
11:20 AM 68.0 °F 51.8 °F 56% 29.77 in 6.2 mi WSW 16.1 mph - N/A   Scattered Clouds
11:50 AM 68.0 °F 50.0 °F 52% 29.77 in 6.2 mi WSW 20.7 mph - N/A   Scattered Clouds
12:00 PM 69 °F 49 °F 38% 29.76 in 22 mi WSW 20.7 mph - -  
12:20 PM 68.0 °F 48.2 °F 49% 29.77 in 6.2 mi WSW 18.4 mph - N/A Rain Light Rain Showers
12:50 PM 69.8 °F 50.0 °F 49% 29.77 in 6.2 mi West 17.3 mph - N/A   Partly Cloudy
1:00 PM 71 °F 50 °F 36% 29.76 in 25 mi West 17.3 mph - - Rain Rain
1:20 PM 68.0 °F 50.0 °F 52% 29.77 in 6.2 mi WSW 20.7 mph - N/A   Partly Cloudy
1:50 PM 68.0 °F 48.2 °F 49% 29.77 in 6.2 mi SW 19.6 mph - N/A   Partly Cloudy
2:00 PM 68 °F 49 °F 39% 29.76 in 28 mi SW 19.6 mph - - Rain Rain
2:20 PM 69.8 °F 51.8 °F 53% 29.74 in 6.2 mi SW 19.6 mph - N/A   Scattered Clouds
2:50 PM 66.2 °F 53.6 °F 64% 29.74 in 6.2 mi SW 17.3 mph - N/A   Partly Cloudy
3:00 PM 67 °F 52 °F 49% 29.76 in 18 mi SW 19.6 mph - - Rain Light Rain Showers
3:20 PM 55.4 °F 51.8 °F 88% 29.77 in 1.9 mi WNW 17.3 mph 43.7 mph N/A Rain , Thunderstorm Heavy Thunderstorms and Rain
3:50 PM 60.8 °F 57.2 °F 88% 29.77 in 6.2 mi WSW 9.2 mph - N/A   Scattered Clouds
4:00 PM 63 °F 56 °F 70% 29.77 in 25 mi SSW 10.4 mph - - Rain Rain
4:20 PM 64.4 °F 55.4 °F 73% 29.77 in 6.2 mi SW 18.4 mph - N/A   Partly Cloudy
4:50 PM 66.2 °F 53.6 °F 64% 29.77 in 6.2 mi SW 18.4 mph - N/A   Partly Cloudy
5:00 PM 67 °F 53 °F 51% 29.76 in 25 mi SW 17.3 mph - - Rain Rain
5:20 PM 64.4 °F 53.6 °F 68% 29.74 in 6.2 mi SW 17.3 mph - N/A   Partly Cloudy
5:50 PM 60.8 °F 53.6 °F 77% 29.77 in 6.2 mi WSW 20.7 mph - N/A Rain Light Rain Showers
6:00 PM 61 °F 53 °F 67% 29.77 in 3 mi WSW 21.9 mph - - Rain Light Rain Showers
6:20 PM 55.4 °F 51.8 °F 88% 29.77 in 5.0 mi West 15.0 mph - N/A Rain , Thunderstorm Thunderstorms and Rain
6:50 PM 59.0 °F 55.4 °F 88% 29.77 in 6.2 mi WSW 11.5 mph - N/A   Scattered Clouds
7:00 PM 60 °F 54 °F 75% 29.77 in 25 mi WSW 10.4 mph - - Rain Rain
7:20 PM 60.8 °F 55.4 °F 82% 29.77 in 6.2 mi WSW 12.7 mph - N/A   Partly Cloudy
7:50 PM 60.8 °F 53.6 °F 77% 29.77 in 6.2 mi WSW 11.5 mph - N/A   Partly Cloudy
8:00 PM 61 °F 51 °F 61% 29.77 in 28 mi WSW 12.7 mph - - Rain Rain
8:20 PM 59.0 °F 51.8 °F 77% 29.77 in 6.2 mi WSW 12.7 mph - N/A   Partly Cloudy
8:50 PM 59.0 °F 53.6 °F 82% 29.77 in 6.2 mi SW 9.2 mph - N/A   Partly Cloudy
9:20 PM 59.0 °F 53.6 °F 82% 29.80 in 6.2 mi SW 11.5 mph - N/A   Partly Cloudy
9:50 PM 59.0 °F 51.8 °F 77% 29.80 in 6.2 mi SW 10.4 mph - N/A   Partly Cloudy
10:00 PM 58 °F 51 °F 69% 29.80 in 25 mi SSW 12.7 mph - -  
10:20 PM 57.2 °F 51.8 °F 82% 29.80 in 6.2 mi SW 11.5 mph - N/A   Partly Cloudy
10:50 PM 57.2 °F 51.8 °F 82% 29.80 in 6.2 mi SW 10.4 mph - N/A   Partly Cloudy
11:00 PM 58 °F 51 °F 70% 29.80 in 19 mi SW 10.4 mph - - Rain Rain
11:20 PM 57.2 °F 51.8 °F 82% 29.80 in 6.2 mi SW 9.2 mph - N/A   Partly Cloudy
11:50 PM 57.2 °F 51.8 °F 82% 29.80 in - WSW 12.7 mph - N/A   Clear